Pine River, MN

5:01 PM CST on December 14, 2017 (GMT -0600)
Pine River Regional

Weather History for KPWC - June, 2013

Change the Weather History Date:

Sunday, June 23, 2013

  Actual Average Record
Temperature  
Mean Temperature 67 °F -  
Max Temperature 75 °F 74 °F 93 °F (2005)
Min Temperature 59 °F 53 °F 35 °F (2004)
Cooling Degree Days 2    
Growing Degree Days 17 (Base 50)    
Moisture  
Dew Point 60 °F    
Average Humidity 81    
Maximum Humidity 100    
Minimum Humidity 53    
Precipitation  
Precipitation 0.00 in - - ()
Sea Level Pressure  
Sea Level Pressure 29.79 in    
Wind  
Wind Speed 7 mph (South)    
Max Wind Speed 15 mph    
Max Gust Speed 29 mph    
Visibility 7 miles    
Events Fog , Rain , Thunderstorm    
Averages and records for this station are not official NWS values.
T = Trace of Precipitation, MM = Missing Value Source: NWS Daily Summary

Daily Weather History Graph

Daily Weather History Graph

Search for Another Location

Airport or City:

Trip Planner

Search our weather history database for the weather conditions in past years. The results will help you decide how hot, cold, wet, or windy it might be!

Date:

Astronomy

Jun. 23, 2013 Rise Set
Actual Time 5:24 AM CDT 9:15 PM CDT
Civil Twilight 4:44 AM CDT 9:54 PM CDT
Nautical Twilight 3:50 AM CDT 10:48 PM CDT
Astronomical Twilight 2:31 AM CDT 12:07 AM CDT
Moon 9:22 PM CDT (6/23) 5:47 AM CDT (6/23)
Length of Visible Light 17h 10m
Length of Day
15h 51m
Full, 100% of the Moon is Illuminated
Jun 23
Full
Jun 29
Last Quarter
Jul 8
New
Jul 15
First Quarter
Jul 22
Full

Hourly Weather History & Observations

Time (CDT) Temp. Dew Point Humidity Pressure Visibility Wind Dir Wind Speed Gust Speed Precip Events Conditions
12:12 AM 62.6 °F 60.8 °F 94% 29.90 in 5.0 mi East 6.9 mph - N/A   Overcast
12:33 AM 60.8 °F 60.8 °F 100% 29.88 in 1.2 mi East 5.8 mph - N/A   Overcast
12:52 AM 60.8 °F 60.8 °F 100% 29.88 in 1.0 mi ESE 6.9 mph - N/A   Overcast
1:13 AM 60.8 °F 60.8 °F 100% 29.87 in 0.5 mi East 8.1 mph - N/A Fog Fog
1:32 AM 60.8 °F 60.8 °F 100% 29.86 in 0.5 mi East 5.8 mph - N/A Fog Fog
1:52 AM 60.8 °F 59.0 °F 94% 29.88 in 0.5 mi East 5.8 mph - N/A Fog Fog
2:13 AM 60.8 °F 59.0 °F 94% 29.87 in 0.5 mi ESE 5.8 mph - N/A Fog Fog
2:32 AM 60.8 °F 59.0 °F 94% 29.86 in 0.2 mi ENE 5.8 mph - N/A Fog Fog
2:53 AM 60.8 °F 59.0 °F 94% 29.86 in 0.2 mi East 5.8 mph - N/A Fog Fog
3:12 AM 59.0 °F 59.0 °F 100% 29.84 in 0.5 mi East 6.9 mph - N/A Fog Fog
3:33 AM 59.0 °F 59.0 °F 100% 29.83 in 0.5 mi ESE 5.8 mph - N/A Fog Fog
3:53 AM 59.0 °F 59.0 °F 100% 29.83 in 0.5 mi ESE 8.1 mph - N/A Fog Fog
4:12 AM 59.0 °F 59.0 °F 100% 29.82 in 0.5 mi ESE 6.9 mph - N/A Fog Fog
4:33 AM 59.0 °F 59.0 °F 100% 29.82 in 0.8 mi East 8.1 mph - N/A Thunderstorm Overcast
4:53 AM 59.0 °F 59.0 °F 100% 29.81 in 0.8 mi ESE 6.9 mph - N/A Rain Light Rain
5:13 AM 59.0 °F 59.0 °F 100% 29.79 in 0.8 mi East 5.8 mph - N/A   Light Drizzle
5:33 AM 59.0 °F 59.0 °F 100% 29.80 in 1.2 mi ESE 4.6 mph - N/A   Light Drizzle
5:53 AM 59.0 °F 59.0 °F 100% 29.80 in 1.5 mi SSE 8.1 mph - N/A Thunderstorm Drizzle
6:13 AM 59.0 °F 59.0 °F 100% 29.82 in 4.0 mi SSE 5.8 mph - N/A Rain Heavy Rain
6:33 AM 59.0 °F 59.0 °F 100% 29.80 in 4.0 mi ESE 5.8 mph - N/A Rain , Thunderstorm Heavy Thunderstorms and Rain
6:52 AM 59.0 °F 59.0 °F 100% 29.73 in 7.0 mi ENE 11.5 mph - N/A Rain Rain
7:13 AM 60.8 °F 60.8 °F 100% 29.64 in 10.0 mi ENE 11.5 mph 24.2 mph N/A Rain Light Rain
7:33 AM 62.6 °F 62.6 °F 100% 29.63 in 10.0 mi Calm Calm - N/A   Clear
7:53 AM 62.6 °F 60.8 °F 94% 29.66 in 10.0 mi SW 8.1 mph - N/A   Clear
8:12 AM 62.6 °F 60.8 °F 94% 29.71 in 10.0 mi SSW 11.5 mph 16.1 mph N/A   Scattered Clouds
8:32 AM 62.6 °F 60.8 °F 94% 29.73 in 10.0 mi SSW 10.4 mph - N/A   Mostly Cloudy
8:53 AM 62.6 °F 60.8 °F 94% 29.72 in 10.0 mi South 4.6 mph - N/A   Overcast
9:13 AM 62.6 °F 62.6 °F 100% 29.71 in 10.0 mi Calm Calm - N/A   Overcast
9:32 AM 64.4 °F 62.6 °F 94% 29.71 in 10.0 mi Calm Calm - N/A   Overcast
9:53 AM 64.4 °F 62.6 °F 94% 29.72 in 10.0 mi Calm Calm - N/A   Overcast
10:13 AM 64.4 °F 62.6 °F 94% 29.73 in 2.5 mi Calm Calm - N/A Rain Rain
10:33 AM 64.4 °F 64.4 °F 100% 29.71 in 4.0 mi Calm Calm - N/A   Drizzle
10:52 AM 64.4 °F 64.4 °F 100% 29.71 in 10.0 mi Calm Calm - N/A   Overcast
11:13 AM 66.2 °F 64.4 °F 94% 29.71 in 10.0 mi SSW 3.5 mph - N/A   Overcast
11:32 AM 68.0 °F 64.4 °F 88% 29.71 in 10.0 mi South 4.6 mph - N/A   Overcast
11:53 AM 68.0 °F 62.6 °F 83% 29.71 in 10.0 mi SW 5.8 mph - N/A   Overcast
12:13 PM 71.6 °F 62.6 °F 73% 29.72 in 10.0 mi SW 11.5 mph 23.0 mph N/A   Mostly Cloudy
12:32 PM 71.6 °F 62.6 °F 73% 29.72 in 10.0 mi SW 10.4 mph 18.4 mph N/A   Mostly Cloudy
12:53 PM 73.4 °F 62.6 °F 69% 29.73 in 10.0 mi WSW 10.4 mph 18.4 mph N/A   Scattered Clouds
1:13 PM 73.4 °F 62.6 °F 69% 29.72 in 10.0 mi SW 13.8 mph 23.0 mph N/A   Mostly Cloudy
1:33 PM 73.4 °F 62.6 °F 69% 29.74 in 10.0 mi WSW 13.8 mph 20.7 mph N/A   Mostly Cloudy
1:53 PM 73.4 °F 60.8 °F 65% 29.75 in 10.0 mi WSW 12.7 mph 23.0 mph N/A   Mostly Cloudy
2:12 PM 71.6 °F 62.6 °F 73% 29.76 in 10.0 mi SW 10.4 mph 18.4 mph N/A   Mostly Cloudy
2:33 PM 73.4 °F 60.8 °F 65% 29.76 in 10.0 mi SW 11.5 mph 23.0 mph N/A   Scattered Clouds
2:53 PM 73.4 °F 60.8 °F 65% 29.76 in 10.0 mi WSW 13.8 mph 20.7 mph N/A   Scattered Clouds
3:12 PM 73.4 °F 60.8 °F 65% 29.77 in 10.0 mi SW 15.0 mph 23.0 mph N/A   Scattered Clouds
3:33 PM 73.4 °F 60.8 °F 65% 29.77 in 10.0 mi WSW 12.7 mph 23.0 mph N/A   Scattered Clouds
3:53 PM 73.4 °F 60.8 °F 65% 29.78 in 10.0 mi WSW 11.5 mph 19.6 mph N/A   Scattered Clouds
4:12 PM 73.4 °F 59.0 °F 61% 29.78 in 10.0 mi SW 12.7 mph 28.8 mph N/A   Mostly Cloudy
4:33 PM 75.2 °F 59.0 °F 57% 29.79 in 10.0 mi WSW 9.2 mph 19.6 mph N/A   Scattered Clouds
4:53 PM 73.4 °F 59.0 °F 61% 29.79 in 10.0 mi SW 8.1 mph 24.2 mph N/A   Scattered Clouds
5:12 PM 75.2 °F 57.2 °F 53% 29.79 in 10.0 mi SW 11.5 mph 20.7 mph N/A   Scattered Clouds
5:33 PM 75.2 °F 57.2 °F 53% 29.78 in 10.0 mi WSW 11.5 mph 20.7 mph N/A   Scattered Clouds
5:53 PM 75.2 °F 59.0 °F 57% 29.78 in 10.0 mi SW 6.9 mph 16.1 mph N/A   Scattered Clouds
6:13 PM 75.2 °F 59.0 °F 57% 29.78 in 10.0 mi SW 10.4 mph 19.6 mph N/A   Scattered Clouds
6:32 PM 75.2 °F 59.0 °F 57% 29.79 in 10.0 mi SW 9.2 mph 16.1 mph N/A   Scattered Clouds
6:53 PM 75.2 °F 57.2 °F 53% 29.80 in 10.0 mi SW 9.2 mph 23.0 mph N/A   Scattered Clouds
7:13 PM 75.2 °F 57.2 °F 53% 29.80 in 10.0 mi SW 12.7 mph 20.7 mph N/A   Scattered Clouds
7:32 PM 75.2 °F 57.2 °F 53% 29.80 in 10.0 mi SW 9.2 mph - N/A   Scattered Clouds
7:53 PM 75.2 °F 57.2 °F 53% 29.81 in 10.0 mi WSW 6.9 mph 17.3 mph N/A   Clear
8:13 PM 73.4 °F 55.4 °F 53% 29.83 in 10.0 mi SW 8.1 mph - N/A   Clear
8:32 PM 73.4 °F 55.4 °F 53% 29.83 in 10.0 mi SW 6.9 mph - N/A   Clear
8:53 PM 71.6 °F 55.4 °F 57% 29.83 in 10.0 mi SW 5.8 mph - N/A   Clear
9:13 PM 69.8 °F 57.2 °F 64% 29.84 in 10.0 mi SSW 5.8 mph - N/A   Clear
9:32 PM 69.8 °F 57.2 °F 64% 29.84 in 10.0 mi SSW 4.6 mph - N/A   Clear
9:53 PM 68.0 °F 57.2 °F 68% 29.85 in 10.0 mi SW 3.5 mph - N/A   Clear
10:13 PM 66.2 °F 57.2 °F 73% 29.87 in 10.0 mi Calm Calm - N/A   Clear
10:32 PM 66.2 °F 57.2 °F 73% 29.87 in 10.0 mi Calm Calm - N/A   Clear
10:53 PM 64.4 °F 57.2 °F 77% 29.88 in 10.0 mi Calm Calm - N/A   Clear
11:13 PM 62.6 °F 55.4 °F 77% 29.88 in 10.0 mi Calm Calm - N/A   Clear
11:32 PM 64.4 °F 55.4 °F 73% 29.88 in 10.0 mi Calm Calm - N/A   Clear
11:53 PM 60.8 °F 57.2 °F 88% 29.89 in 10.0 mi Calm Calm - N/A   Clear